Tracking 20715 objects as of 27-May-2020
HD Live streaming from Space Station
objects crossing your sky now

COSMOS 1375 DEB

Track COSMOS 1375 DEB now!
10-day predictions


NORAD ID: 16377
Int'l Code: 1982-055R
Perigee: 877.3 km
Apogee: 922.4 km
Inclination: 65.8 °
Period: 102.8 minutes
Semi major axis: 7270 km
RCS: 0.033 m2 (small)
Launch date: June 6, 1982
Source: Commonwealth of Independent States (former USSR) (CIS)
Launch site: PLESETSK MISSILE AND SPACE COMPLEX (PKMTR)

Note: This is SATELLITE DEBRIS
aabbcc
Your satellite tracking list
Your tracking list is empty




NASA's NSSDC Master Catalog

Two Line Element Set (TLE):
1 16377U 82055R   20147.95012078  .00000227  00000-0  21086-3 0  9991
2 16377  65.8258 328.9248 0031057  85.1913  65.2434 14.00318077757047
Source of the keplerian elements: AFSPC